| time (UTC) | temp F | wind direction | speed knots | gust knots | rain 1hr in | rain 24hr in | rain mn in | humidity % | barometer mb |
| 20260510102408 | 53 | 192 | 4.3 | 10.4 | 0.00 | 0.06 | 0.00 | 74 | 1007.5 |
| 20260510101908 | 53 | 194 | 3.5 | 8.7 | 0.00 | 0.06 | 0.00 | 75 | 1007.5 |
| 20260510101409 | 53 | 205 | 4.3 | 11.3 | 0.00 | 0.06 | 0.00 | 74 | 1007.3 |
| 20260510100907 | 54 | 194 | 3.5 | 11.3 | 0.00 | 0.06 | 0.00 | 73 | 1007.2 |
| 20260510100407 | 54 | 223 | 4.3 | 10.4 | 0.00 | 0.06 | 0.00 | 73 | 1007.1 |
| 20260510095907 | 54 | 209 | 3.5 | 10.4 | 0.00 | 0.06 | 0.00 | 73 | 1007.0 |
| 20260510095409 | 54 | 214 | 4.3 | 15.6 | 0.00 | 0.06 | 0.00 | 73 | 1006.9 |
| 20260510094907 | 53 | 205 | 6.1 | 13.0 | 0.00 | 0.06 | 0.00 | 73 | 1006.8 |
| 20260510094407 | 54 | 203 | 3.5 | 10.4 | 0.00 | 0.06 | 0.00 | 75 | 1006.8 |
| 20260510093909 | 54 | 205 | 5.2 | 17.4 | 0.00 | 0.06 | 0.00 | 74 | 1006.6 |
| 20260510093407 | 53 | 205 | 5.2 | 10.4 | 0.00 | 0.06 | 0.00 | 75 | 1006.6 |
| 20260510092407 | 53 | 204 | 4.3 | 10.4 | 0.00 | 0.06 | 0.00 | 77 | 1006.5 |
| 20260510091907 | 53 | 192 | 5.2 | 10.4 | 0.00 | 0.06 | 0.00 | 77 | 1006.4 |
| 20260510091408 | 54 | 215 | 5.2 | 15.6 | 0.00 | 0.06 | 0.00 | 78 | 1006.2 |
| 20260510090408 | 54 | 300 | 4.3 | 12.2 | 0.00 | 0.06 | 0.00 | 76 | 1005.9 |
| 20260510085907 | 55 | 202 | 5.2 | 17.4 | 0.00 | 0.06 | 0.00 | 75 | 1005.8 |
| 20260510085407 | 55 | 211 | 7.8 | 17.4 | 0.00 | 0.06 | 0.00 | 75 | 1005.6 |
| 20260510084408 | 55 | 227 | 7.8 | 24.3 | 0.00 | 0.06 | 0.00 | 69 | 1005.6 |
| 20260510083907 | 55 | 195 | 10.4 | 21.7 | 0.00 | 0.06 | 0.00 | 71 | 1005.3 |
| 20260510082907 | 54 | 187 | 3.5 | 13.9 | 0.00 | 0.06 | 0.00 | 76 | 1005.2 |
| 20260510082409 | 54 | 194 | 6.1 | 15.6 | 0.00 | 0.06 | 0.00 | 78 | 1005.2 |
| 20260510080906 | 54 | 193 | 4.3 | 14.8 | 0.00 | 0.06 | 0.00 | 79 | 1005.0 |
| 20260510080407 | 54 | 212 | 6.1 | 13.9 | 0.00 | 0.06 | 0.00 | 79 | 1004.8 |
| 20260510075907 | 54 | 224 | 6.1 | 13.0 | 0.00 | 0.06 | 0.00 | 79 | 1004.8 |
| 20260510075407 | 54 | 215 | 5.2 | 17.4 | 0.00 | 0.06 | 0.00 | 79 | 1004.7 |
| 20260510074907 | 55 | 203 | 7.8 | 15.6 | 0.00 | 0.06 | 0.00 | 78 | 1004.6 |
| 20260510074409 | 54 | 218 | 7.8 | 17.4 | 0.00 | 0.06 | 0.00 | 78 | 1004.4 |
| 20260510073907 | 55 | 201 | 7.8 | 17.4 | 0.00 | 0.06 | 0.00 | 78 | 1004.4 |
| 20260510073408 | 55 | 204 | 7.8 | 17.4 | 0.00 | 0.06 | 0.00 | 78 | 1004.5 |
| 20260510072907 | 55 | 201 | 5.2 | 13.0 | 0.00 | 0.06 | 0.00 | 78 | 1004.3 |
| 20260510071907 | 55 | 226 | 5.2 | 14.8 | 0.00 | 0.06 | 0.00 | 77 | 1004.0 |
| 20260510071408 | 55 | 210 | 8.7 | 18.2 | 0.00 | 0.06 | 0.00 | 77 | 1003.9 |
| 20260510070907 | 55 | 213 | 6.1 | 14.8 | 0.00 | 0.06 | 0.00 | 77 | 1003.9 |
| 20260510065908 | 55 | 188 | 7.8 | 17.4 | 0.00 | 0.06 | 0.00 | 77 | 1003.4 |
| 20260510065407 | 55 | 206 | 7.8 | 13.0 | 0.00 | 0.06 | 0.00 | 76 | 1003.3 |
| 20260510064907 | 55 | 210 | 6.1 | 13.9 | 0.00 | 0.06 | 0.00 | 77 | 1003.3 |
| 20260510064407 | 55 | 209 | 5.2 | 13.9 | 0.00 | 0.06 | 0.00 | 77 | 1003.3 |
| 20260510063908 | 55 | 213 | 4.3 | 10.4 | 0.00 | 0.06 | 0.00 | 77 | 1003.2 |
| 20260510063408 | 56 | 220 | 3.5 | 8.7 | 0.00 | 0.06 | 0.00 | 77 | 1003.0 |
| 20260510062907 | 56 | 229 | 5.2 | 13.0 | 0.00 | 0.06 | 0.00 | 77 | 1003.0 |
| 20260510062409 | 56 | 205 | 6.1 | 13.9 | 0.00 | 0.06 | 0.00 | 77 | 1002.8 |
| 20260510061908 | 56 | 214 | 6.1 | 13.0 | 0.00 | 0.06 | 0.00 | 77 | 1002.8 |
| 20260510060908 | 56 | 212 | 5.2 | 10.4 | 0.00 | 0.06 | 0.00 | 78 | 1002.6 |
| 20260510055908 | 56 | 230 | 4.3 | 12.2 | 0.00 | 0.06 | 0.00 | 77 | 1002.4 |
| 20260510055407 | 57 | 221 | 5.2 | 11.3 | 0.00 | 0.06 | 0.00 | 76 | 1002.3 |
| 20260510054907 | 57 | 229 | 4.3 | 13.0 | 0.00 | 0.06 | 0.00 | 75 | 1002.2 |
| 20260510054407 | 57 | 214 | 6.1 | 17.4 | 0.00 | 0.06 | 0.00 | 75 | 1002.2 |
| 20260510053907 | 57 | 209 | 4.3 | 13.0 | 0.00 | 0.06 | 0.00 | 75 | 1002.0 |
| 20260510053407 | 57 | 223 | 6.1 | 13.9 | 0.00 | 0.06 | 0.00 | 75 | 1001.9 |
| 20260510052907 | 58 | 197 | 4.3 | 13.0 | 0.00 | 0.06 | 0.00 | 75 | 1001.8 |
| 20260510052407 | 58 | 245 | 6.1 | 12.2 | 0.00 | 0.06 | 0.00 | 74 | 1001.8 |
| 20260510051907 | 58 | 213 | 5.2 | 12.2 | 0.00 | 0.06 | 0.00 | 74 | 1001.7 |
| 20260510051407 | 58 | 224 | 4.3 | 15.6 | 0.00 | 0.06 | 0.00 | 75 | 1001.6 |
| 20260510050907 | 59 | 253 | 2.6 | 10.4 | 0.00 | 0.06 | 0.00 | 75 | 1001.5 |
| 20260510050406 | 59 | 220 | 4.3 | 10.4 | 0.00 | 0.06 | 0.00 | 74 | 1001.5 |
| 20260510045907 | 60 | 241 | 4.3 | 12.2 | 0.00 | 0.06 | 0.00 | 74 | 1001.4 |
| 20260510045407 | 60 | 210 | 5.2 | 10.4 | 0.00 | 0.06 | 0.00 | 74 | 1001.3 |
| 20260510044406 | 60 | 330 | 3.5 | 10.4 | 0.00 | 0.06 | 0.00 | 74 | 1001.2 |
| 20260510042907 | 61 | 316 | 4.3 | 10.4 | 0.00 | 0.06 | 0.00 | 74 | 1001.0 |
| 20260510042407 | 61 | 292 | 4.3 | 11.3 | 0.00 | 0.06 | 0.00 | 74 | 1000.9 |
| 20260510041406 | 61 | 280 | 4.3 | 11.3 | 0.00 | 0.06 | 0.00 | 73 | 1000.8 |
| 20260510040907 | 62 | 223 | 5.2 | 11.3 | 0.00 | 0.06 | 0.00 | 74 | 1000.9 |
| 20260510040407 | 62 | 206 | 5.2 | 13.0 | 0.00 | 0.06 | 0.00 | 73 | 1000.8 |
| 20260510035907 | 62 | 208 | 7.0 | 14.8 | 0.00 | 0.06 | 0.00 | 72 | 1000.6 |
| 20260510035407 | 62 | 322 | 5.2 | 13.0 | 0.00 | 0.06 | 0.00 | 71 | 1000.6 |
| 20260510034407 | 63 | 333 | 4.3 | 13.9 | 0.00 | 0.06 | 0.00 | 72 | 1000.4 |
| 20260510033907 | 63 | 249 | 4.3 | 15.6 | 0.00 | 0.06 | 0.00 | 70 | 1000.3 |
| 20260510033407 | 63 | 279 | 5.2 | 12.2 | 0.00 | 0.06 | 0.00 | 72 | 1000.2 |
| 20260510032908 | 63 | 290 | 5.2 | 14.8 | 0.00 | 0.06 | 0.00 | 71 | 1000.3 |
| 20260510032407 | 63 | 298 | 6.1 | 13.0 | 0.00 | 0.06 | 0.00 | 72 | 1000.3 |
| 20260510030408 | 63 | 227 | 7.8 | 12.2 | 0.00 | 0.06 | 0.00 | 72 | 1000.2 |
| 20260510025907 | 63 | 307 | 5.2 | 11.3 | 0.00 | 0.06 | 0.00 | 72 | 1000.1 |
| 20260510025408 | 63 | 327 | 5.2 | 13.9 | 0.00 | 0.06 | 0.00 | 72 | 1000.1 |
| 20260510024907 | 63 | 275 | 6.1 | 20.9 | 0.00 | 0.06 | 0.00 | 72 | 1000.1 |
| 20260510024406 | 63 | 326 | 6.1 | 17.4 | 0.00 | 0.06 | 0.00 | 73 | 1000.1 |
| 20260510023907 | 63 | 324 | 4.3 | 15.6 | 0.00 | 0.06 | 0.00 | 73 | 1000.0 |
| 20260510023408 | 63 | 271 | 6.1 | 13.9 | 0.00 | 0.06 | 0.00 | 74 | 999.9 |
| 20260510022907 | 63 | 240 | 6.1 | 19.1 | 0.00 | 0.06 | 0.00 | 74 | 999.9 |
| 20260510022407 | 63 | 227 | 8.7 | 19.1 | 0.00 | 0.06 | 0.00 | 74 | 999.9 |
| 20260510021407 | 63 | 274 | 8.7 | 18.2 | 0.00 | 0.06 | 0.00 | 72 | 999.7 |
| 20260510020907 | 63 | 327 | 7.0 | 15.6 | 0.00 | 0.06 | 0.00 | 73 | 999.7 |
| 20260510020407 | 63 | 255 | 7.0 | 17.4 | 0.00 | 0.06 | 0.00 | 73 | 999.7 |
| 20260510015907 | 63 | 245 | 5.2 | 17.4 | 0.00 | 0.06 | 0.00 | 74 | 999.7 |
| 20260510015407 | 63 | 209 | 10.4 | 20.0 | 0.00 | 0.06 | 0.00 | 73 | 999.6 |
| 20260510014907 | 64 | 215 | 7.8 | 20.0 | 0.00 | 0.06 | 0.00 | 74 | 999.5 |
| 20260510014407 | 64 | 277 | 5.2 | 13.9 | 0.00 | 0.06 | 0.00 | 76 | 999.6 |
| 20260510013907 | 63 | 240 | 5.2 | 17.4 | 0.00 | 0.06 | 0.00 | 76 | 999.5 |
| 20260510013406 | 63 | 238 | 7.0 | 15.6 | 0.00 | 0.06 | 0.00 | 76 | 999.5 |
| 20260510012907 | 63 | 342 | 4.3 | 17.4 | 0.00 | 0.06 | 0.00 | 76 | 999.6 |
| 20260510012407 | 63 | 191 | 6.1 | 20.0 | 0.00 | 0.06 | 0.00 | 75 | 999.6 |
| 20260510011907 | 62 | 231 | 8.7 | 19.1 | 0.00 | 0.06 | 0.00 | 73 | 999.8 |
| 20260510010907 | 63 | 208 | 9.6 | 22.6 | 0.00 | 0.06 | 0.00 | 74 | 999.6 |
| 20260510010407 | 63 | 274 | 6.1 | 18.2 | 0.00 | 0.06 | 0.00 | 75 | 999.6 |
| 20260510005907 | 63 | 200 | 5.2 | 20.0 | 0.00 | 0.06 | 0.00 | 76 | 999.7 |
| 20260510004906 | 63 | 303 | 4.3 | 13.0 | 0.00 | 0.06 | 0.00 | 76 | 999.9 |
| 20260510004407 | 63 | 299 | 5.2 | 13.9 | 0.00 | 0.06 | 0.00 | 76 | 999.8 |
| 20260510003906 | 63 | 318 | 6.1 | 17.4 | 0.00 | 0.06 | 0.00 | 76 | 999.8 |
| 20260510002907 | 63 | 224 | 5.2 | 13.0 | 0.00 | 0.06 | 0.00 | 75 | 999.8 |
| 20260510002407 | 63 | 213 | 7.0 | 17.4 | 0.00 | 0.06 | 0.00 | 76 | 999.8 |
| 20260510001407 | 63 | 219 | 6.1 | 17.4 | 0.00 | 0.06 | 0.00 | 77 | 999.8 |
| 20260510000907 | 62 | 255 | 5.2 | 13.9 | 0.00 | 0.06 | 0.00 | 76 | 999.9 |
| 20260510000407 | 62 | 216 | 10.4 | 27.8 | 0.00 | 0.06 | 0.00 | 75 | 1000.0 |
| 20260509235907 | 63 | 257 | 7.0 | 13.9 | 0.00 | 0.06 | 0.00 | 77 | 1000.0 |
| 20260509235407 | 62 | 206 | 10.4 | 21.7 | 0.00 | 0.06 | 0.00 | 76 | 1000.0 |
| 20260509234407 | 62 | 226 | 7.0 | 15.6 | 0.00 | 0.06 | 0.00 | 78 | 1000.0 |
| 20260509233907 | 62 | 327 | 6.1 | 13.0 | 0.00 | 0.06 | 0.00 | 78 | 1000.2 |
| 20260509233407 | 62 | 342 | 7.8 | 17.4 | 0.00 | 0.06 | 0.00 | 77 | 1000.3 |
| 20260509232407 | 62 | 347 | 7.0 | 18.2 | 0.00 | 0.06 | 0.00 | 78 | 1000.3 |
| 20260509231907 | 62 | 342 | 5.2 | 18.2 | 0.00 | 0.06 | 0.00 | 79 | 1000.3 |
| 20260509231407 | 62 | 335 | 6.1 | 18.2 | 0.00 | 0.06 | 0.00 | 78 | 1000.4 |
| 20260509230907 | 62 | 322 | 6.1 | 14.8 | 0.00 | 0.06 | 0.00 | 78 | 1000.4 |
| 20260509230407 | 62 | 298 | 5.2 | 13.9 | 0.00 | 0.06 | 0.00 | 78 | 1000.4 |
| 20260509225907 | 61 | 280 | 5.2 | 14.8 | 0.00 | 0.06 | 0.00 | 79 | 1000.4 |
| 20260509225406 | 61 | 308 | 5.2 | 13.0 | 0.00 | 0.06 | 0.00 | 77 | 1000.4 |
| 20260509224907 | 62 | 298 | 5.2 | 14.8 | 0.00 | 0.06 | 0.00 | 77 | 1000.4 |
| 20260509224407 | 62 | 335 | 6.1 | 13.9 | 0.00 | 0.06 | 0.00 | 76 | 1000.3 |
| 20260509223907 | 62 | 307 | 2.6 | 11.3 | 0.00 | 0.06 | 0.00 | 77 | 1000.4 |
| 20260509223406 | 61 | 249 | 5.2 | 12.2 | 0.00 | 0.07 | 0.00 | 77 | 1000.4 |
| 20260509222906 | 61 | 332 | 3.5 | 13.9 | 0.00 | 0.07 | 0.00 | 77 | 1000.4 |
| 20260509222407 | 61 | 284 | 5.2 | 20.0 | 0.00 | 0.07 | 0.00 | 77 | 1000.4 |
| 20260509221907 | 61 | 320 | 7.8 | 20.9 | 0.00 | 0.07 | 0.00 | 77 | 1000.3 |
| 20260509221407 | 60 | 313 | 5.2 | 17.4 | 0.00 | 0.07 | 0.00 | 78 | 1000.3 |
| 20260509220407 | 60 | 330 | 6.1 | 15.6 | 0.00 | 0.07 | 0.00 | 78 | 1000.2 |
| 20260509215907 | 60 | 338 | 8.7 | 17.4 | 0.00 | 0.07 | 0.00 | 78 | 1000.1 |
| 20260509214907 | 60 | 287 | 5.2 | 13.0 | 0.00 | 0.08 | 0.00 | 79 | 1000.2 |
| 20260509214407 | 60 | 320 | 6.1 | 17.4 | 0.00 | 0.08 | 0.00 | 79 | 1000.2 |
| 20260509213907 | 59 | 345 | 5.2 | 15.6 | 0.00 | 0.08 | 0.00 | 79 | 1000.3 |
| 20260509213407 | 59 | 304 | 6.1 | 13.0 | 0.00 | 0.08 | 0.00 | 80 | 1000.3 |
| 20260509212907 | 59 | 267 | 4.3 | 13.9 | 0.00 | 0.08 | 0.00 | 80 | 1000.4 |
| 20260509212408 | 59 | 231 | 5.2 | 13.9 | 0.00 | 0.08 | 0.00 | 80 | 1000.5 |
| 20260509211906 | 59 | 242 | 4.3 | 13.0 | 0.00 | 0.09 | 0.00 | 80 | 1000.5 |
| 20260509211407 | 58 | 227 | 5.2 | 14.8 | 0.00 | 0.09 | 0.00 | 80 | 1000.3 |
| 20260509210908 | 58 | 320 | 4.3 | 13.0 | 0.00 | 0.09 | 0.00 | 80 | 1000.3 |
| 20260509205907 | 58 | 296 | 5.2 | 15.6 | 0.00 | 0.09 | 0.00 | 81 | 1000.2 |
| 20260509205409 | 57 | 295 | 5.2 | 13.9 | 0.00 | 0.09 | 0.00 | 81 | 1000.2 |
| 20260509203908 | 57 | 332 | 5.2 | 13.9 | 0.00 | 0.10 | 0.00 | 82 | 1000.0 |
| 20260509203409 | 56 | 265 | 4.3 | 11.3 | 0.00 | 0.10 | 0.00 | 83 | 1000.0 |
| 20260509202907 | 56 | 217 | 5.2 | 13.9 | 0.00 | 0.10 | 0.00 | 84 | 999.9 |
| 20260509202408 | 56 | 335 | 6.1 | 13.0 | 0.00 | 0.10 | 0.00 | 85 | 999.9 |
| 20260509201907 | 56 | 311 | 4.3 | 10.4 | 0.00 | 0.10 | 0.00 | 85 | 999.9 |
| 20260509201409 | 56 | 295 | 3.5 | 10.4 | 0.00 | 0.10 | 0.00 | 85 | 999.9 |
| 20260509200906 | 56 | 321 | 5.2 | 13.0 | 0.00 | 0.10 | 0.00 | 85 | 999.8 |
| 20260509195409 | 55 | 323 | 4.3 | 10.4 | 0.00 | 0.10 | 0.00 | 87 | 999.7 |
| 20260509194907 | 55 | 292 | 5.2 | 14.8 | 0.00 | 0.10 | 0.00 | 87 | 999.6 |
| 20260509194408 | 55 | 213 | 2.6 | 13.9 | 0.00 | 0.10 | 0.00 | 87 | 999.7 |
| 20260509193907 | 56 | 250 | 4.3 | 10.4 | 0.00 | 0.10 | 0.00 | 87 | 999.6 |
| 20260509193408 | 56 | 202 | 4.3 | 10.4 | 0.00 | 0.10 | 0.00 | 87 | 999.4 |
| 20260509192407 | 56 | 287 | 5.2 | 14.8 | 0.00 | 0.10 | 0.00 | 87 | 999.4 |
| 20260509191907 | 56 | 329 | 3.5 | 10.4 | 0.00 | 0.10 | 0.00 | 87 | 999.4 |
| 20260509191408 | 56 | 269 | 2.6 | 10.4 | 0.00 | 0.10 | 0.00 | 87 | 999.3 |
| 20260509190906 | 56 | 312 | 4.3 | 10.4 | 0.00 | 0.10 | 0.00 | 87 | 999.3 |
| 20260509190408 | 56 | 279 | 1.7 | 7.8 | 0.00 | 0.10 | 0.00 | 86 | 999.4 |
| 20260509185906 | 56 | 306 | 3.5 | 14.8 | 0.00 | 0.10 | 0.00 | 86 | 999.4 |
| 20260509185407 | 56 | 266 | 5.2 | 13.0 | 0.00 | 0.10 | 0.00 | 86 | 999.3 |
| 20260509184907 | 56 | 255 | 5.2 | 17.4 | 0.00 | 0.10 | 0.00 | 85 | 999.3 |
| 20260509183907 | 56 | 222 | 7.0 | 17.4 | 0.00 | 0.10 | 0.00 | 85 | 999.1 |
| 20260509183408 | 56 | 265 | 6.1 | 13.9 | 0.00 | 0.10 | 0.00 | 85 | 999.1 |
| 20260509182907 | 56 | 244 | 6.1 | 17.4 | 0.00 | 0.10 | 0.00 | 85 | 999.1 |
| 20260509182409 | 56 | 285 | 4.3 | 11.3 | 0.00 | 0.10 | 0.00 | 85 | 999.2 |
| 20260509181906 | 56 | 241 | 5.2 | 13.0 | 0.00 | 0.10 | 0.00 | 85 | 999.3 |
| 20260509181407 | 56 | 281 | 4.3 | 11.3 | 0.00 | 0.10 | 0.00 | 84 | 999.2 |
| 20260509180907 | 56 | 209 | 4.3 | 13.9 | 0.00 | 0.10 | 0.00 | 84 | 999.2 |
| 20260509180409 | 56 | 286 | 7.0 | 17.4 | 0.00 | 0.10 | 0.00 | 85 | 999.2 |
| 20260509175907 | 56 | 327 | 4.3 | 14.8 | 0.00 | 0.10 | 0.00 | 85 | 999.2 |
| 20260509175407 | 56 | 269 | 5.2 | 11.3 | 0.00 | 0.10 | 0.00 | 85 | 999.2 |
| 20260509174906 | 56 | 224 | 5.2 | 14.8 | 0.00 | 0.10 | 0.00 | 85 | 999.1 |
| 20260509174409 | 56 | 312 | 5.2 | 17.4 | 0.00 | 0.10 | 0.00 | 85 | 999.1 |
| 20260509173906 | 56 | 259 | 4.3 | 12.2 | 0.00 | 0.10 | 0.00 | 85 | 999.0 |
| 20260509173407 | 56 | 232 | 6.1 | 15.6 | 0.00 | 0.10 | 0.00 | 86 | 999.1 |
| 20260509172907 | 55 | 280 | 5.2 | 17.4 | 0.00 | 0.10 | 0.00 | 86 | 999.2 |
| 20260509172408 | 55 | 269 | 5.2 | 15.6 | 0.00 | 0.10 | 0.00 | 86 | 999.2 |
| 20260509171408 | 55 | 226 | 5.2 | 13.0 | 0.00 | 0.10 | 0.00 | 86 | 999.2 |
| 20260509170907 | 56 | 312 | 6.1 | 14.8 | 0.00 | 0.10 | 0.00 | 85 | 999.1 |
| 20260509170408 | 56 | 228 | 6.1 | 17.4 | 0.00 | 0.10 | 0.00 | 85 | 999.2 |
| 20260509165907 | 56 | 256 | 6.1 | 20.0 | 0.00 | 0.10 | 0.00 | 84 | 999.2 |
| 20260509165409 | 56 | 236 | 6.1 | 19.1 | 0.00 | 0.10 | 0.00 | 84 | 999.3 |
| 20260509164907 | 56 | 291 | 6.1 | 14.8 | 0.00 | 0.10 | 0.00 | 83 | 999.3 |
| 20260509164407 | 56 | 302 | 4.3 | 12.2 | 0.00 | 0.10 | 0.00 | 83 | 999.3 |
| 20260509163906 | 56 | 243 | 7.0 | 17.4 | 0.00 | 0.10 | 0.00 | 83 | 999.2 |
| 20260509163408 | 57 | 238 | 6.1 | 20.9 | 0.00 | 0.10 | 0.00 | 83 | 999.1 |
| 20260509162907 | 57 | 274 | 9.6 | 17.4 | 0.00 | 0.10 | 0.00 | 83 | 999.1 |
| 20260509162408 | 57 | 278 | 7.8 | 13.0 | 0.00 | 0.10 | 0.00 | 83 | 999.2 |
| 20260509161906 | 56 | 236 | 7.0 | 19.1 | 0.00 | 0.10 | 0.00 | 83 | 999.0 |
| 20260509161415 | 56 | 299 | 7.8 | 17.4 | 0.00 | 0.10 | 0.00 | 84 | 999.1 |
| 20260509160906 | 56 | 236 | 6.1 | 14.8 | 0.00 | 0.10 | 0.00 | 84 | 999.0 |
| 20260509155906 | 56 | 204 | 5.2 | 11.3 | 0.00 | 0.10 | 0.00 | 84 | 999.2 |
| 20260509155408 | 56 | 253 | 5.2 | 14.8 | 0.00 | 0.10 | 0.00 | 84 | 999.2 |
| 20260509154907 | 55 | 214 | 6.1 | 17.4 | 0.00 | 0.10 | 0.00 | 84 | 999.2 |
| 20260509153408 | 55 | 223 | 6.1 | 14.8 | 0.00 | 0.10 | 0.00 | 84 | 999.2 |
| 20260509152907 | 55 | 301 | 5.2 | 13.0 | 0.00 | 0.11 | 0.00 | 84 | 999.4 |
| 20260509151906 | 55 | 209 | 2.6 | 8.7 | 0.00 | 0.11 | 0.00 | 83 | 999.7 |
| 20260509151408 | 55 | 309 | 3.5 | 10.4 | 0.00 | 0.11 | 0.00 | 83 | 999.7 |
| 20260509150907 | 55 | 285 | 6.1 | 17.4 | 0.00 | 0.11 | 0.00 | 83 | 999.7 |
| 20260509150408 | 55 | 223 | 7.0 | 15.6 | 0.00 | 0.11 | 0.00 | 82 | 999.6 |
| 20260509145907 | 55 | 241 | 5.2 | 21.7 | 0.00 | 0.11 | 0.00 | 82 | 999.6 |
| 20260509145408 | 54 | 225 | 7.0 | 17.4 | 0.00 | 0.11 | 0.00 | 83 | 999.6 |
| 20260509144409 | 55 | 175 | 4.3 | 12.2 | 0.00 | 0.11 | 0.00 | 83 | 999.7 |
| 20260509143907 | 55 | 289 | 5.2 | 12.2 | 0.00 | 0.11 | 0.00 | 83 | 999.7 |
| 20260509142906 | 55 | 323 | 4.3 | 10.4 | 0.00 | 0.11 | 0.00 | 84 | 999.7 |
| 20260509142409 | 55 | 287 | 4.3 | 10.4 | 0.00 | 0.11 | 0.00 | 84 | 999.7 |
| 20260509141907 | 55 | 349 | 4.3 | 14.8 | 0.00 | 0.11 | 0.00 | 84 | 999.8 |
| 20260509141408 | 55 | 338 | 4.3 | 12.2 | 0.00 | 0.11 | 0.00 | 84 | 999.8 |
| 20260509140408 | 55 | 346 | 5.2 | 11.3 | 0.00 | 0.11 | 0.00 | 84 | 999.8 |
| 20260509135907 | 54 | 212 | 4.3 | 10.4 | 0.00 | 0.11 | 0.00 | 84 | 1000.0 |
| 20260509135407 | 54 | 223 | 4.3 | 11.3 | 0.00 | 0.11 | 0.00 | 83 | 1000.0 |
| 20260509134408 | 54 | 220 | 4.3 | 10.4 | 0.00 | 0.11 | 0.00 | 83 | 1000.0 |
| 20260509133907 | 54 | 220 | 4.3 | 11.3 | 0.00 | 0.11 | 0.00 | 83 | 1000.0 |
| 20260509133408 | 54 | 229 | 4.3 | 13.0 | 0.00 | 0.11 | 0.00 | 83 | 999.9 |
| 20260509132907 | 54 | 303 | 4.3 | 12.2 | 0.00 | 0.11 | 0.00 | 84 | 1000.0 |
| 20260509132409 | 54 | 269 | 4.3 | 10.4 | 0.00 | 0.11 | 0.00 | 83 | 1000.2 |
| 20260509131906 | 55 | 316 | 2.6 | 10.4 | 0.00 | 0.11 | 0.00 | 83 | 1000.1 |
| 20260509131408 | 55 | 255 | 4.3 | 11.3 | 0.00 | 0.11 | 0.00 | 83 | 1000.2 |
| 20260509130907 | 55 | 313 | 4.3 | 18.2 | 0.00 | 0.11 | 0.00 | 84 | 1000.2 |
| 20260509130409 | 55 | 312 | 4.3 | 11.3 | 0.00 | 0.11 | 0.00 | 84 | 1000.2 |
| 20260509125907 | 55 | 286 | 2.6 | 11.3 | 0.06 | 0.11 | 0.00 | 84 | 1000.2 |
| 20260509125408 | 54 | 206 | 6.1 | 13.0 | 0.06 | 0.11 | 0.00 | 84 | 1000.2 |
| 20260509124907 | 55 | 229 | 2.6 | 10.4 | 0.06 | 0.11 | 0.00 | 84 | 1000.1 |
| 20260509124409 | 55 | 268 | 2.6 | 14.8 | 0.06 | 0.11 | 0.00 | 84 | 1000.1 |
| 20260509123907 | 54 | 281 | 6.1 | 14.8 | 0.06 | 0.11 | 0.00 | 84 | 1000.0 |
| 20260509123408 | 54 | 283 | 5.2 | 12.2 | 0.06 | 0.11 | 0.00 | 84 | 1000.1 |
| 20260509122906 | 54 | 256 | 2.6 | 10.4 | 0.06 | 0.11 | 0.00 | 85 | 1000.3 |
| 20260509122409 | 54 | 228 | 5.2 | 10.4 | 0.06 | 0.11 | 0.00 | 85 | 1000.4 |
| 20260509121907 | 54 | 221 | 4.3 | 13.0 | 0.06 | 0.11 | 0.00 | 85 | 1000.4 |
| 20260509121408 | 54 | 270 | 4.3 | 13.9 | 0.06 | 0.11 | 0.00 | 85 | 1000.4 |
| 20260509120907 | 54 | 206 | 6.1 | 13.9 | 0.06 | 0.11 | 0.00 | 85 | 1000.5 |
| 20260509120408 | 54 | 213 | 5.2 | 12.2 | 0.06 | 0.11 | 0.00 | 84 | 1000.5 |
| 20260509115907 | 54 | 221 | 6.1 | 15.6 | 0.00 | 1.09 | 0.06 | 84 | 1000.5 |
| 20260509114907 | 54 | 190 | 6.1 | 18.2 | 0.00 | 1.09 | 0.06 | 83 | 1000.4 |
| 20260509114409 | 54 | 208 | 5.2 | 15.6 | 0.00 | 1.09 | 0.06 | 83 | 1000.5 |
| 20260509113907 | 54 | 222 | 6.1 | 10.4 | 0.00 | 1.09 | 0.06 | 83 | 1000.4 |
| 20260509113408 | 54 | 233 | 4.3 | 15.6 | 0.00 | 1.09 | 0.06 | 83 | 1000.5 |
| 20260509112907 | 54 | 214 | 6.1 | 13.0 | 0.00 | 1.09 | 0.06 | 82 | 1000.4 |
| 20260509112407 | 54 | 216 | 5.2 | 13.0 | 0.00 | 1.09 | 0.06 | 82 | 1000.4 |
| 20260509111907 | 54 | 217 | 5.2 | 11.3 | 0.00 | 1.09 | 0.06 | 82 | 1000.5 |
| 20260509111408 | 55 | 205 | 5.2 | 11.3 | 0.00 | 1.09 | 0.06 | 82 | 1000.4 |
| 20260509110407 | 55 | 203 | 7.0 | 17.4 | 0.00 | 1.09 | 0.06 | 81 | 1000.4 |
| 20260509105907 | 54 | 205 | 7.8 | 14.8 | 0.00 | 1.09 | 0.06 | 81 | 1000.4 |
| 20260509105408 | 54 | 210 | 7.0 | 13.9 | 0.00 | 1.09 | 0.06 | 81 | 1000.3 |
| 20260509104907 | 54 | 224 | 7.0 | 15.6 | 0.00 | 1.09 | 0.06 | 81 | 1000.3 |
| 20260509103907 | 54 | 215 | 5.2 | 14.8 | 0.00 | 1.09 | 0.06 | 82 | 1000.4 |
| 20260509102907 | 54 | 282 | 3.5 | 10.4 | 0.00 | 1.09 | 0.06 | 83 | 1000.6 |